| time (UTC) | temp F | wind direction | speed MPH | gust MPH | rain 1hr in | rain 24hr in | rain mn in | humidity % | barometer mb |
| 20260508071740 | 37 | 10 | 2.0 | 0.0 | 0.00 | 0.00 | 0.00 | 99 | |
| 20260508061639 | 37 | 360 | 5.0 | 0.0 | 0.00 | 0.00 | 0.00 | 99 | |
| 20260508051639 | 37 | 30 | 3.0 | 0.0 | 0.00 | 0.00 | 0.00 | 93 | |
| 20260508041839 | 36 | 330 | 5.0 | 0.0 | 0.00 | 0.00 | 0.00 | 99 | |
| 20260508031639 | 36 | 320 | 2.0 | 0.0 | 0.00 | 0.00 | 0.00 | 99 | |
| 20260508021639 | 36 | 290 | 3.0 | 0.0 | 0.00 | 0.00 | 0.00 | 99 | |
| 20260508011739 | 36 | 340 | 1.0 | 0.0 | 0.00 | 0.00 | 0.00 | 99 | |
| 20260508001638 | 36 | 330 | 3.0 | 0.0 | 0.00 | 0.00 | 0.00 | 99 | |
| 20260507231638 | 36 | 310 | 6.0 | 0.0 | 0.00 | 0.00 | 0.00 | 99 | |
| 20260507221938 | 37 | 300 | 8.0 | 0.0 | 0.00 | 0.00 | 0.00 | 93 | |
| 20260507211639 | 37 | 310 | 10.0 | 0.0 | 0.00 | 0.00 | 0.00 | 99 | |
| 20260507201640 | 37 | 310 | 12.0 | 0.0 | 0.00 | 0.00 | 0.00 | 93 | |
| 20260507191740 | 37 | 310 | 10.0 | 0.0 | 0.00 | 0.00 | 0.00 | 99 | |
| 20260507181638 | 37 | 310 | 12.0 | 0.0 | 0.00 | 0.00 | 0.00 | 99 | |
| 20260507171638 | 39 | 320 | 10.0 | 0.0 | 0.00 | 0.00 | 0.00 | 99 | |
| 20260507161940 | 39 | 320 | 13.0 | 0.0 | 0.00 | 0.00 | 0.00 | 99 | |
| 20260507151639 | 41 | 320 | 13.0 | 0.0 | 0.00 | 0.00 | 0.00 | 99 | |
| 20260507141639 | 41 | 310 | 13.0 | 0.0 | 0.00 | 0.00 | 0.00 | 99 | |
| 20260507131739 | 43 | 310 | 12.0 | 0.0 | 0.00 | 0.00 | 0.00 | 93 | |
| 20260507121638 | 45 | 290 | 10.0 | 0.0 | 0.00 | 0.00 | 0.00 | 93 | |
| 20260507111639 | 46 | 260 | 14.0 | 0.0 | 0.00 | 0.00 | 0.00 | 93 | |
| 20260507101839 | 45 | 250 | 18.0 | 0.0 | 0.00 | 0.00 | 0.00 | 99 | |
| 20260507091639 | 45 | 250 | 20.0 | 26.0 | 0.00 | 0.00 | 0.00 | 99 | |
| 20260507081639 | 45 | 240 | 16.0 | 0.0 | 0.00 | 0.00 | 0.00 | 93 |